EJU857Y LFLL-LFKF

Flight info

Callsign EJU857Y
Flight time 0h 57m
Altitude 35000
Route ROMAM T43 BEPER DCT RETNO DCT KOLON DCT OMARD M623 VAREK
Aircraft A319/M-SDE2E3FGIJ1RWXYZ/LB1

Departure

Time 2026-05-04 16:29
Airport Lyon Saint-Exupéry Airport (LFLL)

Arrival

Time 2026-05-04 17:27
Airport Figari Sud-Corse Airport (LFKF)
Time Latitude Longitude Altitude Speed Heading
2026-05-04 16:04 45.71601 5.08210 802 ft 0 kts 195°
2026-05-04 16:19 45.71602 5.08210 802 ft 2 kts 195°
2026-05-04 16:20 45.71672 5.08231 801 ft 4 kts 144°
2026-05-04 16:20 45.71686 5.08192 801 ft 0 kts 105°
2026-05-04 16:24 45.71707 5.08483 802 ft 8 kts 28°
2026-05-04 16:25 45.71852 5.08475 802 ft 14 kts 355°
2026-05-04 16:26 45.72372 5.08411 798 ft 22 kts 355°
2026-05-04 16:26 45.72874 5.08350 790 ft 25 kts 355°
2026-05-04 16:27 45.73213 5.08309 785 ft 24 kts 355°
2026-05-04 16:28 45.73715 5.08299 777 ft 23 kts 50°
2026-05-04 16:28 45.73516 5.08736 782 ft 21 kts 175°
2026-05-04 16:29 45.69971 5.09175 2248 ft 167 kts 176°
2026-05-04 16:30 45.65788 5.09666 3755 ft 225 kts 176°
2026-05-04 16:31 45.62701 5.10042 5843 ft 223 kts 176°
2026-05-04 16:31 45.57590 5.10655 8040 ft 260 kts 176°
2026-05-04 16:32 45.52014 5.11334 10410 ft 285 kts 177°
2026-05-04 16:33 45.48543 5.11747 11212 ft 311 kts 177°
2026-05-04 16:33 45.44151 5.12279 12767 ft 321 kts 176°
2026-05-04 16:34 45.39639 5.12829 14248 ft 330 kts 177°
2026-05-04 16:34 45.37332 5.13106 14937 ft 333 kts 177°
2026-05-04 16:35 45.30286 5.13955 16992 ft 343 kts 177°
2026-05-04 16:35 45.23034 5.14820 18975 ft 353 kts 177°
2026-05-04 16:36 45.20578 5.15114 19607 ft 356 kts 177°
2026-05-04 16:36 45.15629 5.15705 20866 ft 362 kts 178°
2026-05-04 16:37 45.10555 5.16307 22095 ft 368 kts 178°
2026-05-04 16:37 45.07989 5.16605 22691 ft 371 kts 178°
2026-05-04 16:37 45.02795 5.17178 23824 ft 377 kts 179°
2026-05-04 16:38 44.97503 5.17756 24790 ft 383 kts 179°
2026-05-04 16:39 44.89459 5.18650 26186 ft 391 kts 179°
2026-05-04 16:39 44.84016 5.19258 27087 ft 397 kts 179°
2026-05-04 16:40 44.78454 5.19874 28014 ft 403 kts 180°
2026-05-04 16:40 44.72804 5.20504 28902 ft 409 kts 180°
2026-05-04 16:41 44.67141 5.21481 29701 ft 421 kts 169°
2026-05-04 16:41 44.59571 5.28235 30760 ft 451 kts 136°
2026-05-04 16:42 44.53294 5.38223 31768 ft 457 kts 137°
2026-05-04 16:43 44.49082 5.44879 32697 ft 454 kts 137°
2026-05-04 16:43 44.44928 5.51437 33627 ft 452 kts 139°
2026-05-04 16:43 44.42839 5.54730 34098 ft 450 kts 139°
2026-05-04 16:44 44.35054 5.68499 35029 ft 447 kts 131°
2026-05-04 16:45 44.31605 5.75584 35033 ft 441 kts 131°
2026-05-04 16:46 44.22972 5.93220 35038 ft 440 kts 131°
2026-05-04 16:47 44.16068 6.07336 35024 ft 439 kts 131°
2026-05-04 16:48 44.09181 6.21333 35015 ft 439 kts 131°
2026-05-04 16:49 44.02272 6.35280 35007 ft 438 kts 131°
2026-05-04 16:50 43.95347 6.49210 35016 ft 438 kts 131°
2026-05-04 16:51 43.90141 6.59659 35020 ft 438 kts 131°
2026-05-04 16:52 43.84294 6.71347 35030 ft 439 kts 131°
2026-05-04 16:53 43.79069 6.81729 35032 ft 439 kts 131°
2026-05-04 16:54 43.71881 6.95320 35028 ft 432 kts 141°
2026-05-04 16:55 43.57838 7.10294 35029 ft 426 kts 149°
2026-05-04 16:56 43.46016 7.22583 35022 ft 426 kts 149°
2026-05-04 16:57 43.38894 7.29944 35007 ft 427 kts 149°
2026-05-04 16:58 43.29398 7.39721 34999 ft 428 kts 149°
2026-05-04 17:00 43.15054 7.54431 34998 ft 430 kts 149°
2026-05-04 17:00 43.07475 7.60618 34994 ft 417 kts 167°
2026-05-04 17:01 43.02001 7.63317 34999 ft 418 kts 166°
2026-05-04 17:02 42.91073 7.68760 34997 ft 418 kts 166°
2026-05-04 17:03 42.82816 7.72842 34302 ft 425 kts 166°
2026-05-04 17:03 42.80085 7.74193 33783 ft 422 kts 166°
2026-05-04 17:03 42.74620 7.76893 32786 ft 414 kts 166°
2026-05-04 17:04 42.69249 7.79524 31829 ft 406 kts 166°
2026-05-04 17:04 42.63972 7.82117 30895 ft 400 kts 166°
2026-05-04 17:05 42.58758 7.84685 29981 ft 395 kts 165°
2026-05-04 17:05 42.53629 7.87192 28940 ft 391 kts 165°
2026-05-04 17:06 42.48556 7.89660 28060 ft 386 kts 165°
2026-05-04 17:06 42.46039 7.90888 27645 ft 383 kts 165°
2026-05-04 17:07 42.41058 7.93317 26793 ft 377 kts 165°
2026-05-04 17:07 42.39427 7.94110 26512 ft 376 kts 164°
2026-05-04 17:07 42.36141 7.95701 25933 ft 373 kts 164°
2026-05-04 17:07 42.33706 7.96897 25483 ft 372 kts 161°
2026-05-04 17:08 42.31418 7.98545 25035 ft 375 kts 148°
2026-05-04 17:08 42.27695 8.03443 24081 ft 378 kts 134°
2026-05-04 17:08 42.25929 8.06077 23583 ft 377 kts 134°
2026-05-04 17:09 42.24156 8.08693 23042 ft 376 kts 135°
2026-05-04 17:09 42.22387 8.11291 22565 ft 374 kts 135°
2026-05-04 17:09 42.20635 8.13862 22076 ft 371 kts 135°
2026-05-04 17:10 42.17163 8.18968 21156 ft 367 kts 135°
2026-05-04 17:10 42.12019 8.26525 19785 ft 362 kts 135°
2026-05-04 17:11 42.10340 8.28991 19345 ft 360 kts 135°
2026-05-04 17:11 42.08648 8.31475 18892 ft 359 kts 135°
2026-05-04 17:11 42.05282 8.36412 17951 ft 356 kts 135°
2026-05-04 17:12 42.03616 8.38856 17521 ft 352 kts 135°
2026-05-04 17:12 42.00327 8.43678 16663 ft 346 kts 134°
2026-05-04 17:13 41.97279 8.52368 15463 ft 342 kts 113°
2026-05-04 17:14 41.94141 8.60746 14267 ft 329 kts 140°
2026-05-04 17:14 41.92342 8.62602 13893 ft 324 kts 147°
2026-05-04 17:14 41.88721 8.66128 13106 ft 318 kts 146°
2026-05-04 17:15 41.86964 8.67839 12735 ft 315 kts 146°
2026-05-04 17:15 41.84025 8.70698 12110 ft 310 kts 146°
2026-05-04 17:16 41.80048 8.74563 11492 ft 295 kts 146°
2026-05-04 17:16 41.75271 8.77786 10527 ft 288 kts 172°
2026-05-04 17:17 41.73280 8.78121 10148 ft 288 kts 173°
2026-05-04 17:17 41.67363 8.79132 8986 ft 283 kts 173°
2026-05-04 17:18 41.65415 8.79465 8610 ft 281 kts 173°
2026-05-04 17:18 41.61577 8.80126 7910 ft 277 kts 173°
2026-05-04 17:19 41.57770 8.80781 7178 ft 273 kts 174°
2026-05-04 17:19 41.54048 8.81421 6625 ft 259 kts 174°
2026-05-04 17:20 41.50663 8.82028 6192 ft 239 kts 169°
2026-05-04 17:20 41.47688 8.83990 5265 ft 243 kts 150°
2026-05-04 17:20 41.46250 8.85177 4718 ft 243 kts 150°
2026-05-04 17:21 41.43550 8.87408 4438 ft 208 kts 151°
2026-05-04 17:21 41.41226 8.89321 3857 ft 196 kts 151°
2026-05-04 17:22 41.40076 8.90289 3543 ft 190 kts 146°
2026-05-04 17:22 41.39358 8.91686 3448 ft 184 kts 108°
2026-05-04 17:23 41.41038 8.95940 2683 ft 174 kts 51°
2026-05-04 17:23 41.41824 8.97115 2442 ft 168 kts 51°
2026-05-04 17:23 41.43245 8.99244 2018 ft 144 kts 52°
2026-05-04 17:24 41.43890 9.00211 1815 ft 134 kts 52°
2026-05-04 17:24 41.45662 9.02873 1272 ft 125 kts 52°
2026-05-04 17:25 41.46236 9.03733 1096 ft 125 kts 52°
2026-05-04 17:25 41.47378 9.05480 791 ft 127 kts 53°
2026-05-04 17:26 41.48553 9.07231 418 ft 125 kts 52°
2026-05-04 17:26 41.50113 9.09529 70 ft 69 kts 48°
2026-05-04 17:27 41.50475 9.10073 83 ft 24 kts 69°
2026-05-04 17:27 41.50514 9.10113 83 ft 10 kts 218°
2026-05-04 17:28 41.50394 9.09940 69 ft 15 kts 227°
2026-05-04 17:29 41.50181 9.09709 67 ft 11 kts 143°
2026-05-04 17:29 41.50125 9.09780 69 ft 0 kts 137°
2026-05-04 17:30 41.50078 9.09811 69 ft 6 kts 179°
2026-05-04 17:31 41.50006 9.09749 71 ft 3 kts 180°
2026-05-04 17:31 41.49977 9.09781 67 ft 1 kts 137°
2026-05-04 17:32 41.49968 9.09792 71 ft 0 kts 137°